Regional Weather Roundup
Issued by NWS Grand Forks, ND

Home | Current Version | Previous Version | Text Only | Print | Product List | Glossary Off
Versions: 1 2 3 4 5 6 7 8 9 10 11 12 13 14 15 16 17 18 19 20 21 22 23 24 25 26 27 28 29 30 31 32 33 34 35 36 37 38 39 40 41 42 43 44 45 46 47 48 49 50

000
ASUS43 KFGF 240310
RWRFGF
PRAIRIE TO PINES  WEATHER ROUNDUP
NATIONAL WEATHER SERVICE EASTERN NORTH DAKOTA/GRAND FORKS ND
1000 PM CDT SAT MAY 23 2015

 **SATELLITE DATA USED TO AUGMENT SKY COVER AT AUTOMATED STATIONS**
 *****  WEATHER ACROSS EASTERN NORTH DAKOTA  *****

CITY           SKY/WX    TMP DP  RH WIND       PRES   REMARKS
GRAND FORKS    MOCLDY    62  46  55 S8        30.09R
GRAND FRKS AFB MOCLDY    62  45  54 SW9       30.10R
GRAND FRKS NWS   N/A     61 N/A N/A SW5         N/A
DEVILS LAKE    CLOUDY    64  43  45 S7        30.10R
FARGO          CLEAR     60  48  64 SE6       30.11S
WAHPETON ARPT  CLOUDY    63  45  51 CALM      30.12S
$$

 ***** WEATHER ACROSS CENTRAL AND WESTERN NORTH DAKOTA  *****

CITY           SKY/WX    TMP DP  RH WIND       PRES   REMARKS
BISMARCK       CLOUDY    58  50  75 SE8       30.10S
MINOT          CLOUDY    64  45  49 S8        30.08R
JAMESTOWN      CLOUDY    61  50  67 CALM      30.11R
MINOT AFB      CLOUDY    64  46  51 S10       30.07R
GARRISON         N/A     58  46  64 S3        30.09S
WILLISTON      CLOUDY    64  41  42 SE6       30.08S
DICKINSON      MOCLDY    54  46  74 SE5       30.08R
HETTINGER      CLOUDY    55  48  77 E9        30.10R
$$

 *****  OTHER AIRPORT OBSERVATIONS IN OUR AREA  *****

CITY           SKY/WX    TMP DP  RH WIND       PRES   REMARKS
WALHALLA         N/A     68  41  37 SW7       30.07R
GRAFTON AIRPOR FAIR      63  48  59 S8        30.09R
VALLEY CITY AR FAIR      59  46  63 CALM      30.12R
CANDO          FAIR      63  45  51 S9        30.10R
CAVALIER APRT  FAIR      66  46  48 S6        30.07R
GWINNER        NOT AVBL
SHEYENNE NWR     N/A     62  51  66 SE3       29.95
ROLLA          FAIR      63  43  48 SW10      30.10R
 ***** THE ABOVE OBSERVATIONS ARE NON NWS ARE NOT QUALITY
       CONTROLLED AND MAY MIS-REPORT RAIN FOR SNOW...
$$

  *****  WEATHER ACROSS NORTHERN MINNESOTA  *****

CITY           SKY/WX    TMP DP  RH WIND       PRES   REMARKS
FLAG ISLAND    CLEAR     68  37  32 SW7       30.06R
WARROAD        CLEAR     63  46  55 SW7       30.09R
ROSEAU         CLEAR     64  46  52 SW6       30.09R
HALLOCK        PTCLDY    64  45  48 S8        30.08R
THF RVR FALLS  MOCLDY    64  43  45 SW8       30.12R
BAUDETTE       CLEAR     62  44  51 SW5       30.09R
WASKISH        CLEAR     61  45  55 CALM      30.11R
CROOKSTON      MOCLDY    61  43  51 SW8       30.12R
STEPHEN NDAWN    N/A     64  45  48 SW6         N/A
GREENBUSH NDAW   N/A     63  50  63 SW5         N/A
$$
  *****  WEATHER ACROSS CENTRAL AND WEST MINNESOTA  *****

CITY           SKY/WX    TMP DP  RH WIND       PRES   REMARKS
FOSSTON        PTCLDY    57  43  58 S6        30.14R
BEMIDJI        CLEAR     61  43  51 CALM      30.14R
PARK RAPIDS    CLEAR     62  44  51 CALM      30.15R
ELBOW LAKE     CLOUDY    63  49  60 E3        30.13S
WADENA         PTCLDY    57  45  62 CALM      30.14S
DETROIT LAKES  CLEAR     59  45  58 CALM      30.16R
MOORHEAD       CLEAR     63  48  59 S3        30.13R
FERGUS FALLS   CLOUDY    63  46  55 CALM      30.13S
MORRIS MN      CLOUDY    64  48  55 E8        30.11S
STAPLES        CLOUDY    59  45  58 CALM      30.15S
$$
  *****  WEATHER ELSEWHERE ACROSS MINNESOTA  *****

CITY           SKY/WX    TMP DP  RH WIND       PRES   REMARKS
DULUTH         PTCLDY    62  42  47 W3        30.15S
INTRNTL FALLS  CLEAR     53  43  68 SW3       30.09R
ELY            PTCLDY    64  39  39 SW6       30.12R
CLOQUET        PTCLDY    57  43  58 SW3       30.16R
WHEATON        CLOUDY    61  48  63 E6        30.13S
BRAINERD       MOCLDY    55  47  74 CALM      30.16R
HIBBING        CLEAR     56  42  59 CALM      30.14R
ALEXANDRIA     CLOUDY    62  46  55 E6        30.15S
SAINT CLOUD    CLOUDY    62  47  57 CALM      30.13F
MINNEAPOLIS    MOCLDY    64  46  52 E9        30.13S
$$

  *****  WEATHER ACROSS SOUTH DAKOTA  *****

CITY           SKY/WX    TMP DP  RH WIND       PRES   REMARKS
SIOUX FALLS    CLOUDY    62  54  74 SW3       30.08S
BROOKINGS      CLOUDY    63  54  72 CALM      30.10R
WATERTOWN      MOCLDY    58  48  69 NE6       30.09S
HURON          MOCLDY    59  52  77 CALM      30.07S
SISSETON         N/A     63  50  62 SE5       30.10S
ABERDEEN       CLOUDY    61  51  70 E7        30.08F
MITCHELL       CLOUDY    61  55  81 S5        30.08R
PIERRE         CLOUDY    58  54  86 SE12      30.05R
MOBRIDGE       CLOUDY    59  54  83 NE6       30.06S
RAPID CITY     CLOUDY    54  53  97 E13       30.02S
$$

  *****  SOME WEATHER IN NEARBY STATES *****

CITY           SKY/WX    TMP DP  RH WIND       PRES   REMARKS
GLASGOW MT     PTCLDY    62  42  47 S3        30.07S
GREAT FALLS MT CLOUDY    52  49  89 CALM      30.10S
CHEYENNE WY    CLOUDY    47  44  90 E8        29.97R
SCOTTSBLUFF NE CLOUDY    55  54  96 SE5       29.92S
OMAHA NE       LGT RAIN  63  60  90 E5        30.04S
DES MOINES IA  CLOUDY    69  53  56 SE7       30.10S
DAVENPORT IA   MOCLDY    67  45  45 S6        30.16R
CHICAGO IL     PTCLDY    63  43  48 SE8       30.19R
EAU CLAIRE WI  CLOUDY    63  45  51 NE6       30.15R
LA CROSSE WI   PTCLDY    67  49  52 SE5       30.13R
$$

  *****  SOME NATIONAL WEATHER *****

CITY           SKY/WX    TMP DP  RH WIND       PRES   REMARKS
LA GUARDIA NY  PTCLDY    59  44  57 S9        30.35R
RALEIGH NC     PTCLDY    59  51  75 CALM      30.39R
ATLANTA GA     PTCLDY    71  50  47 E8        30.31R
NEW ORLEANS LA PTCLDY    79  69  71 SE13      30.11R
OKLAHOMA CITY  TSTM      62  61  96 E12       29.97R
ALBUQUERQUE NM MOCLDY    67  23  19 SW7       29.94R
SALT LAKE CITY PTCLDY    57  43  59 NW8       29.93R
LOS ANGELES CA MOCLDY    60  54  80 W13       30.04R
BOISE ID       LGT RAIN  71  50  47 NE16G23   29.84R
SEATTLE WA     CLOUDY    60  51  72 SW6       30.16S
$$

*** WEATHER ACROSS MANITOBA...SASKATCHEWAN AND ONTARIO ***
                ***ONTARIO***

CITY           SKY/WX    TMP DP  RH WIND       PRES   REMARKS
GERALDTON      PTCLDY    59  45  58 W2        30.03R
THUNDER BAY    MOCLDY    59  43  55 CALM      30.06S
SIOUX LOOKOUT  PTCLDY    59  43  55 SW5       30.04S
TORONTO        CLEAR     61  28  29 SW12      30.25S
BIG TROUT LK   CLEAR     39  28  65 N5        30.09R
PICKLE LAKE    NOT AVBL
DRYDEN         CLEAR     64  39  39 SW8       30.06S
KENORA         PTCLDY    64  39  39 SW8       30.06R
$$
                *** MANITOBA***

CITY           SKY/WX    TMP DP  RH WIND       PRES   REMARKS
BRANDON        NOT AVBL
DAUPHIN        PTCLDY    61  48  63 NE8       30.08R
ISLAND LAKE    PTCLDY    48  30  49 CALM      30.12S
PILOT MOUND      N/A     59  43  55 S12         N/A
THE PAS        PTCLDY    55  37  50 SE2       30.12S
THOMPSON       PTCLDY    48  30  49 CALM      30.10F
WINNIPEG       CLEAR     70  37  30 S9        30.04S
LYNN LAKE      CLEAR     54  23  30 W6        30.12F
CHURCHILL      CLOUDY    52  36  54 W17       29.83F
GILLAM         PTCLDY    50  28  43 SW8       30.04F
$$
                ***SASKATCHEWAN***

CITY           SKY/WX    TMP DP  RH WIND       PRES   REMARKS
ESTEVAN        CLOUDY    64  39  39 W2        30.07S
KINDERSLEY     MOCLDY    68  28  22 SE9       30.08S
LLOYDMINSTER   MOCLDY    66  36  32 NE9       30.08R
PRINCE ALBERT  MOCLDY    68  43  40 E9        30.06F
REGINA         PTCLDY    66  34  30 S6        30.08S
YORKTON        MOCLDY    64  45  48 NE5       30.07S
N. BATTLEFORD  CLEAR     59  39  47 N6        30.08R
LA RONGE       PTCLDY    57  36  44 CALM      30.12S
SASKATOON      PTCLDY    70  36  28 SW7       30.07S
SWIFT CURRENT  CLEAR     61  30  31 S7        30.10S
$$
NOTE: THESE ARE AUTOMATED STATIONS WITH LIMITED QUALITY CONTROL
      "FAIR" INDICATES FEW OR NO CLOUDS BELOW 12,000 FEET WITH NO
      SIGNIFICANT WEATHER AND/OR OBSTRUCTIONS TO VISIBILITY.
      SKY/WX - SKY CONDITION AND SIGNIFICANT WEATHER.
      TMP - AIR TEMPERATURE.    DP   - DEWPOINT TEMPERATURE.
      RH  - RELATIVE HUMIDITY.  PRES - PRESSURE.
      HX  - HEAT INDEX.         WCI  - WIND CHILL INDEX.
$



USA.gov is the U.S. government's official web portal to all federal, state and local government web resources and services.